[[{"header":{"parameterUnit":"m.s-1","parameterCategory":1,"la1":30.2991,"la2":30.254,"lo1":-89.0895,"lo2":-89.0444,"dy":0.0017,"dx":0.0017,"nx":28,"ny":28,"refTime":"2025-04-14T21:00:00:Z","depth":0,"parameterNumber":2,"parameterNumberName":"U-component_of_WINDS"},"data":[0,0,0,0,0,0,0,0,0,0,0,0,0,0,0,0,0,0,0,0,0,0,0,0,0,0,0,0,0,0,0,0,0,0,0,0,0,0,0,0,0,0,0,0,0,0,0,0,0,0,0,0,0,0,0,0,0,0,-4.8818,-4.8818,0,-4.8827,-4.8827,-4.8827,-4.8724,-4.8721,-4.8718,-4.8716,-4.8725,-4.8728,-4.8731,0,0,0,0,0,0,0,0,0,0,0,0,0,-4.8713,-4.8715,-4.8818,-4.8818,-4.8819,-4.8827,-4.8827,-4.8827,-4.8725,-4.8721,-4.8718,-4.8714,-4.8724,-4.8728,-4.8731,0,0,0,0,0,0,0,0,0,0,0,0,0,-4.8744,-4.8716,-4.8818,-4.8768,-4.8764,-4.8827,-4.8827,-4.8827,-4.8725,-4.8721,-4.8717,-4.8713,-4.8723,-4.8727,-4.8732,-4.8844,0,0,-4.8745,-4.8747,0,0,0,0,0,0,0,0,-4.8742,-4.8748,-4.8775,-4.8772,-4.8767,-4.877,-4.8793,-4.8833,-4.8726,-4.874,-4.8716,-4.8711,-4.8744,-4.8746,-4.8757,-4.8844,-4.8844,-4.8745,-4.8748,-4.875,-4.8751,0,0,0,0,0,0,0,-4.874,-4.8747,-4.8822,-4.8776,-4.8771,-4.8745,-4.8745,-4.88,-4.8766,-4.8738,-4.8731,-4.8733,-4.8741,-4.8753,-4.8757,-4.8845,-4.8745,-4.8749,-4.8752,-4.8753,-4.9025,-4.9029,0,0,0,0,0,0,-4.8745,-4.8746,-4.8821,-4.8822,-4.8744,-4.8751,-4.8751,-4.8773,-4.8765,-4.8759,-4.8737,-4.8729,-4.8748,-4.8752,-4.8756,-4.8888,-4.875,-4.8754,-4.8756,-4.902,-4.9026,-4.9031,0,0,0,0,0,0,-4.8743,-4.8753,-4.8821,-4.8782,-4.8789,-4.8757,-4.8784,-4.8776,-4.8788,-4.8764,-4.8757,-4.8756,-4.8745,-4.875,-4.8823,-4.8887,-4.8756,-4.876,-4.9015,-4.9022,-4.9028,-4.9152,0,0,0,0,0,0,-4.874,-4.8753,-4.8795,-4.8784,-4.8791,-4.8888,-4.8788,-4.8779,-4.8796,-4.8785,-4.878,-4.8775,-4.8742,-4.8817,-4.8827,-4.8891,-4.8763,-4.9009,-4.9018,-4.9026,-4.9142,-4.9162,-4.9179,0,0,0,0,0,-4.8737,-4.8829,-4.8797,-4.8807,-4.8843,-4.8892,-4.8896,-4.8856,-4.8802,-4.8844,-4.8828,-4.8775,-4.8878,-4.8825,-4.8836,-4.8902,-4.9005,-4.9016,-4.9026,-4.9133,-4.9158,-4.9179,0,0,0,0,0,0,-4.8848,-4.8826,-4.8791,-4.8882,-4.889,-4.8874,-4.8926,-4.8883,-4.8906,-4.8894,-4.8843,-4.8843,-4.8925,-4.892,-4.8862,-4.901,-4.8932,-4.8945,-4.901,-4.9033,-4.9052,-4.9052,-4.8767,0,0,0,0,0,-4.8883,-4.8924,-4.8903,-4.8985,-4.8991,-4.8958,-4.8977,-4.8946,-4.8951,-4.8954,-4.8943,-4.8951,-4.8985,-4.9009,-4.9038,-4.914,-4.9138,-4.919,-4.9209,-4.9225,-4.9237,-4.9292,-4.9315,-4.9065,-4.9065,-4.9065,0,0,-4.8956,-4.8949,-4.8978,-4.9007,-4.9009,-4.9053,-4.8961,-4.9011,-4.9044,-4.8962,-4.903,-4.9023,-4.9028,-4.9116,-4.9154,-4.9114,-4.9305,-4.9238,-4.925,-4.9254,-4.9305,-4.9329,-4.935,-4.9072,-4.9071,-4.907,0,0,-4.9111,-4.911,-4.9179,-4.9183,-4.9187,-4.9165,-4.9182,-4.9173,-4.9165,-4.9233,-4.9172,-4.921,-4.9269,-4.9276,-4.9287,-4.9446,-4.9399,-4.9457,-4.9556,-4.961,-4.9629,-4.9647,-4.9705,-4.9726,-4.9469,-4.9469,-4.947,0,-4.9202,-4.9266,-4.922,-4.9275,-4.929,-4.9217,-4.9287,-4.9293,-4.9307,-4.932,-4.9275,-4.9349,-4.9347,-4.9436,-4.9475,-4.9486,-4.9504,-4.9458,-4.963,-4.9647,-4.9662,-4.9717,-4.9739,-4.9477,-4.9476,-4.9475,-4.9474,0,-4.9377,-4.9422,-4.9478,-4.9493,-4.9514,-4.9577,-4.9541,-4.9568,-4.9534,-4.9517,-4.9588,-4.9583,-4.9611,-4.9629,-4.9597,-4.9715,-4.969,-4.9639,-4.956,-4.9694,-4.9745,-4.9766,-4.9487,-4.9484,-4.9482,-4.948,0,0,-4.9604,-4.9594,-4.9615,-4.9622,-4.9621,-4.9655,-4.9714,-4.9742,-4.9767,-4.9779,-4.9828,-4.988,-4.9833,-4.9845,-4.9813,-4.986,-4.9989,-4.9803,-4.9802,-4.9839,-5.012,-5.016,-5.0185,-4.9957,-4.996,-4.9963,-5.012,0,-4.9756,-4.9857,-4.9818,-4.9922,-4.9964,-4.9896,-4.9947,-4.9953,-4.9939,-4.9972,-4.9955,-4.9994,-4.9928,-4.9935,-4.9979,-4.9964,-5.0045,-4.9952,-5.0003,-5.0005,-5.0006,-5.0211,-5.0254,-5.0402,-5.0139,-5.0143,-5.0145,0,-4.9948,-4.9969,-5.0078,-5.0071,-5.0087,-5.0134,-5.0157,-5.0189,-5.0194,-5.0181,-5.0196,-5.0153,-5.0211,-5.0131,-5.0211,-5.0149,-5.0167,-5.0163,-5.0168,-5.0173,-5.0085,-5.0223,-5.0448,-5.0471,-5.0176,-5.0173,-5.0171,0,-5.0105,-5.016,-5.0232,-5.0239,-5.0233,-5.0268,-5.0267,-5.0267,-5.0287,-5.0307,-5.0319,-5.0345,-5.036,-5.0382,-5.0348,-5.0293,-5.0434,-5.035,-5.0425,-5.0426,-5.0459,-5.0458,-5.0692,-5.0468,-5.0468,-5.0467,-5.0467,0,-5.0281,-5.0351,-5.0302,-5.0347,-5.0423,-5.0377,-5.0454,-5.0445,-5.0447,-5.0489,-5.0431,-5.0472,-5.0423,-5.046,-5.0433,-5.0505,-5.0511,-5.0502,-5.0495,-5.0509,-5.051,-5.0521,-5.0511,-5.0473,-5.0472,-5.0471,-5.047,0,-5.047,-5.044,-5.0515,-5.0502,-5.0501,-5.0558,-5.0547,-5.0588,-5.0569,-5.0624,-5.0634,-5.0605,-5.0644,-5.0612,-5.0651,-5.0633,-5.0728,-5.0705,-5.0727,-5.0721,-5.0798,-5.0792,-5.1049,-5.1081,-5.0836,-5.0838,-5.084,0,-5.0585,-5.0637,-5.063,-5.0654,-5.0657,-5.0697,-5.0716,-5.0673,-5.0696,-5.0706,-5.0747,-5.0782,-5.0808,-5.0875,-5.0857,-5.0887,-5.0865,-5.0953,-5.087,-5.0882,-5.0869,-5.0867,-5.0873,-5.0971,-5.0974,-5.0976,-5.0978,0,-5.0793,-5.0776,-5.0806,-5.0833,-5.0858,-5.0877,-5.089,-5.0913,-5.0869,-5.0898,-5.0939,-5.0959,-5.0999,-5.1035,-5.1059,-5.1057,-5.1012,-5.1004,-5.1023,-5.1039,-5.105,-5.1047,-5.0775,-5.0999,-5.0997,-5.0995,-5.0994,-5.0993,-5.0949,-5.0993,-5.0996,-5.1032,-5.1038,-5.1052,-5.1091,-5.1077,-5.111,-5.1139,-5.1111,-5.1161,-5.1165,-5.1192,-5.1197,-5.1235,-5.1199,-5.1226,-5.1233,-5.1241,-5.1253,-5.1043,-5.1239,-5.1238,-5.1238,-5.1237,-5.1237,0,-5.1156,-5.1154,-5.1188,-5.121,-5.1239,-5.1192,-5.1205,-5.1233,-5.1277,-5.1284,-5.1311,-5.1358,-5.1393,-5.1378,-5.1409,-5.1442,-5.1422,-5.1452,-5.145,-5.1451,-5.1283,-5.1264,-5.1468,-5.1468,-5.1468,-5.1468,-5.1468,-5.1468,-5.1267,-5.1339,-5.1322,-5.1397,-5.1394,-5.1442,-5.1454,-5.1467,-5.1473,-5.1528,-5.1557,-5.1547,-5.1546,-5.1576,-5.1606,-5.1601,-5.1616,-5.1654,-5.1642,-5.1485,-5.1463,-5.1441,-5.1423,-5.1657,-5.1658,-5.1807,-5.1808,-5.1809]},{"header":{"parameterUnit":"m.s-1","parameterCategory":1,"la1":30.2991,"la2":30.254,"lo1":-89.0895,"lo2":-89.0444,"dy":0.0017,"dx":0.0017,"nx":28,"ny":28,"refTime":"2025-04-14T21:00:00:Z","depth":0,"parameterNumber":3,"parameterNumberName":"V-component_of_WINDS"},"data":[0,0,0,0,0,0,0,0,0,0,0,0,0,0,0,0,0,0,0,0,0,0,0,0,0,0,0,0,0,0,0,0,0,0,0,0,0,0,0,0,0,0,0,0,0,0,0,0,0,0,0,0,0,0,0,0,0,0,-2.7433,-2.7434,0,-2.7462,-2.7462,-2.7462,-2.7433,-2.7432,-2.743,-2.7429,-2.7457,-2.7459,-2.7461,0,0,0,0,0,0,0,0,0,0,0,0,0,-2.7351,-2.7353,-2.7433,-2.7434,-2.7434,-2.7462,-2.7462,-2.7463,-2.7433,-2.7431,-2.743,-2.7429,-2.7457,-2.7459,-2.7461,0,0,0,0,0,0,0,0,0,0,0,0,0,-2.7384,-2.7354,-2.7433,-2.7423,-2.7422,-2.7462,-2.7462,-2.7463,-2.7433,-2.7431,-2.743,-2.7428,-2.7456,-2.7459,-2.7461,-2.7513,0,0,-2.747,-2.7471,0,0,0,0,0,0,0,0,-2.7382,-2.7387,-2.7424,-2.7423,-2.7423,-2.7442,-2.7444,-2.7479,-2.7434,-2.7429,-2.7429,-2.7427,-2.7454,-2.7456,-2.7465,-2.7514,-2.7515,-2.747,-2.7472,-2.7473,-2.7473,0,0,0,0,0,0,0,-2.738,-2.7386,-2.7445,-2.7424,-2.7424,-2.7416,-2.7419,-2.745,-2.745,-2.7429,-2.7427,-2.7431,-2.7453,-2.7463,-2.7466,-2.7516,-2.747,-2.7472,-2.7474,-2.7475,-2.7607,-2.7609,0,0,0,0,0,0,-2.7379,-2.7384,-2.7444,-2.7445,-2.7398,-2.7419,-2.7422,-2.7437,-2.745,-2.745,-2.7432,-2.7429,-2.7459,-2.7463,-2.7467,-2.7528,-2.7473,-2.7475,-2.7477,-2.7605,-2.7608,-2.761,0,0,0,0,0,0,-2.7378,-2.7385,-2.7442,-2.7414,-2.7421,-2.7422,-2.744,-2.7439,-2.7449,-2.7452,-2.7452,-2.7443,-2.7458,-2.7463,-2.7501,-2.7528,-2.7476,-2.7479,-2.7603,-2.7606,-2.7609,-2.765,0,0,0,0,0,0,-2.7375,-2.7384,-2.7405,-2.7415,-2.7423,-2.7477,-2.7441,-2.7441,-2.7454,-2.745,-2.7462,-2.7462,-2.7457,-2.7498,-2.7504,-2.7531,-2.7481,-2.7601,-2.7605,-2.7608,-2.7647,-2.7654,-2.7661,0,0,0,0,0,-2.7373,-2.7415,-2.7406,-2.7413,-2.7448,-2.7479,-2.7483,-2.7477,-2.7456,-2.7476,-2.7478,-2.7462,-2.7524,-2.7502,-2.7509,-2.7537,-2.7599,-2.7603,-2.7608,-2.7644,-2.7653,-2.7661,0,0,0,0,0,0,-2.7407,-2.7416,-2.7406,-2.7453,-2.7466,-2.7474,-2.7499,-2.7487,-2.7505,-2.7501,-2.7491,-2.7494,-2.7535,-2.754,-2.7515,-2.7587,-2.7558,-2.7564,-2.7583,-2.7592,-2.7599,-2.7597,-2.7483,0,0,0,0,0,-2.742,-2.7446,-2.7452,-2.7492,-2.7499,-2.7498,-2.7511,-2.7505,-2.7518,-2.7523,-2.7528,-2.754,-2.7562,-2.7577,-2.7598,-2.7647,-2.7649,-2.767,-2.7677,-2.7683,-2.7688,-2.7714,-2.7724,-2.7624,-2.7624,-2.7624,0,0,-2.7448,-2.7456,-2.7472,-2.75,-2.7509,-2.7535,-2.7503,-2.7532,-2.7551,-2.7527,-2.7564,-2.7568,-2.7581,-2.7625,-2.7645,-2.763,-2.7716,-2.7688,-2.7693,-2.7695,-2.772,-2.7729,-2.7738,-2.7627,-2.7626,-2.7626,0,0,-2.7511,-2.752,-2.7555,-2.7564,-2.7578,-2.7577,-2.7586,-2.7596,-2.7598,-2.7635,-2.7617,-2.7639,-2.7678,-2.7688,-2.7698,-2.7765,-2.7751,-2.7771,-2.7809,-2.7835,-2.7843,-2.785,-2.7874,-2.7882,-2.7777,-2.7777,-2.7777,0,-2.7543,-2.7582,-2.7574,-2.7604,-2.7617,-2.7596,-2.7632,-2.7641,-2.7661,-2.767,-2.7653,-2.7701,-2.7709,-2.7755,-2.7771,-2.778,-2.7789,-2.7771,-2.7842,-2.7849,-2.7855,-2.7878,-2.7887,-2.7779,-2.7779,-2.7779,-2.7779,0,-2.7621,-2.7649,-2.7675,-2.7695,-2.7711,-2.7743,-2.7739,-2.7756,-2.7748,-2.7748,-2.7786,-2.7794,-2.7816,-2.7826,-2.7818,-2.7871,-2.7862,-2.7844,-2.7814,-2.7868,-2.7889,-2.7898,-2.7783,-2.7782,-2.7781,-2.7781,0,0,-2.7708,-2.7723,-2.7733,-2.7742,-2.7756,-2.7777,-2.7808,-2.783,-2.7844,-2.7858,-2.7884,-2.7917,-2.79,-2.7912,-2.7905,-2.7927,-2.798,-2.7907,-2.7907,-2.7921,-2.8039,-2.8053,-2.8063,-2.797,-2.7972,-2.7973,-2.8038,0,-2.7772,-2.7828,-2.7821,-2.7873,-2.7898,-2.7879,-2.7906,-2.7917,-2.7918,-2.7939,-2.7939,-2.7963,-2.7939,-2.7946,-2.7967,-2.7969,-2.8004,-2.7964,-2.7994,-2.7995,-2.7993,-2.8074,-2.8089,-2.815,-2.8046,-2.8048,-2.8049,0,-2.7855,-2.7873,-2.7928,-2.7938,-2.7948,-2.7973,-2.7992,-2.8012,-2.8024,-2.8023,-2.8036,-2.8024,-2.8055,-2.8025,-2.8067,-2.804,-2.8052,-2.8054,-2.8056,-2.806,-2.8026,-2.808,-2.8169,-2.8179,-2.8062,-2.8061,-2.806,0,-2.7914,-2.7951,-2.7989,-2.7997,-2.8009,-2.8027,-2.8033,-2.8043,-2.8056,-2.8073,-2.8082,-2.8101,-2.8112,-2.8127,-2.8122,-2.81,-2.8165,-2.8134,-2.8165,-2.8166,-2.8181,-2.818,-2.8274,-2.8187,-2.8187,-2.8187,-2.8187,0,-2.7987,-2.8021,-2.8016,-2.8039,-2.8077,-2.8068,-2.8106,-2.8109,-2.8118,-2.8142,-2.8125,-2.8147,-2.8138,-2.816,-2.8155,-2.8191,-2.8196,-2.8196,-2.8194,-2.8198,-2.8198,-2.8206,-2.8202,-2.8189,-2.8189,-2.8188,-2.8188,0,-2.8059,-2.8057,-2.8097,-2.8105,-2.8108,-2.8136,-2.8142,-2.8164,-2.8163,-2.8193,-2.8199,-2.8198,-2.8222,-2.8218,-2.8244,-2.8241,-2.8286,-2.8279,-2.8283,-2.8281,-2.8313,-2.8311,-2.8416,-2.843,-2.8333,-2.8334,-2.8335,0,-2.8106,-2.8133,-2.8144,-2.8158,-2.8166,-2.8189,-2.8203,-2.8195,-2.821,-2.8225,-2.8245,-2.8268,-2.8286,-2.8325,-2.8327,-2.8347,-2.834,-2.8376,-2.8343,-2.8346,-2.8342,-2.8341,-2.8343,-2.8383,-2.8384,-2.8385,-2.8385,0,-2.8191,-2.8188,-2.8209,-2.8229,-2.8246,-2.8261,-2.8275,-2.8288,-2.8281,-2.8298,-2.8323,-2.8337,-2.8364,-2.8387,-2.8406,-2.8411,-2.8397,-2.8395,-2.8404,-2.8408,-2.8409,-2.841,-2.8301,-2.8393,-2.8393,-2.8392,-2.8392,-2.8391,-2.8252,-2.8275,-2.8286,-2.831,-2.8319,-2.8332,-2.8353,-2.8355,-2.8376,-2.8398,-2.8391,-2.842,-2.843,-2.8454,-2.8461,-2.8483,-2.847,-2.8482,-2.8485,-2.8488,-2.8492,-2.8405,-2.8486,-2.8486,-2.8486,-2.8485,-2.8485,0,-2.8336,-2.8343,-2.8364,-2.8384,-2.8403,-2.8388,-2.8402,-2.8418,-2.8444,-2.8455,-2.8473,-2.8501,-2.8523,-2.8526,-2.8547,-2.8563,-2.8558,-2.8569,-2.8568,-2.857,-2.8503,-2.8494,-2.8574,-2.8574,-2.8574,-2.8574,-2.8574,-2.8573,-2.8382,-2.842,-2.8418,-2.846,-2.8466,-2.8494,-2.8503,-2.8515,-2.8524,-2.8557,-2.8575,-2.8577,-2.8584,-2.8605,-2.8625,-2.8625,-2.8633,-2.8648,-2.8646,-2.8583,-2.8574,-2.8566,-2.8558,-2.865,-2.865,-2.8711,-2.8711,-2.8712]}]]